[[{"header":{"parameterUnit":"m.s-1","parameterCategory":1,"la1":30.2991,"la2":30.254,"lo1":-89.0895,"lo2":-89.0444,"dy":0.0017,"dx":0.0017,"nx":28,"ny":28,"refTime":"2024-06-29T09:00:00:Z","depth":0,"parameterNumber":2,"parameterNumberName":"U-component_of_WINDS"},"data":[0,0,0,0,0,0,0,0,0,0,0,0,0,0,0,0,0,0,0,0,0,0,0,0,0,0,0,0,0,0,0,0,0,0,0,0,0,0,0,0,0,0,0,0,0,0,0,0,0,0,0,0,0,0,0,0,0,0,2.3958,2.3959,0,2.3997,2.3997,2.3998,2.4023,2.4023,2.4024,2.4024,2.406,2.4061,2.4062,0,0,0,0,0,0,0,0,0,0,0,0,0,2.3905,2.3905,2.3958,2.3959,2.3959,2.3997,2.3997,2.3998,2.4023,2.4023,2.4024,2.4024,2.406,2.4061,2.4062,0,0,0,0,0,0,0,0,0,0,0,0,0,2.3934,2.3906,2.3958,2.3976,2.3978,2.3997,2.3997,2.3998,2.4023,2.4023,2.4024,2.4024,2.406,2.4061,2.4062,2.4064,0,0,2.4066,2.4066,0,0,0,0,0,0,0,0,2.3932,2.3936,2.3973,2.3975,2.3977,2.4006,2.3992,2.402,2.4023,2.4006,2.4024,2.4024,2.4042,2.4044,2.4051,2.4066,2.4068,2.4066,2.4067,2.4067,2.4068,0,0,0,0,0,0,0,2.393,2.3934,2.3973,2.3974,2.3976,2.3982,2.3987,2.3997,2.4022,2.4008,2.4009,2.4014,2.4043,2.405,2.4052,2.4068,2.4066,2.4067,2.4068,2.4068,2.4089,2.4089,0,0,0,0,0,0,2.3926,2.3932,2.3972,2.3975,2.3955,2.3983,2.3988,2.3996,2.4022,2.4026,2.4014,2.4015,2.4048,2.4051,2.4053,2.4059,2.4067,2.4068,2.4069,2.4089,2.4089,2.4089,0,0,0,0,0,0,2.3924,2.3929,2.3971,2.3954,2.396,2.3984,2.3993,2.3997,2.4004,2.4026,2.4031,2.4016,2.4048,2.4052,2.4062,2.406,2.4069,2.407,2.4089,2.4089,2.4089,2.4069,0,0,0,0,0,0,2.3923,2.3928,2.3929,2.3954,2.3961,2.3979,2.3993,2.3997,2.4006,2.4008,2.403,2.4034,2.4048,2.406,2.4063,2.4062,2.4071,2.409,2.4089,2.4089,2.407,2.4068,2.4066,0,0,0,0,0,2.3921,2.3921,2.3929,2.3934,2.3963,2.3979,2.3982,2.4,2.4006,2.4007,2.4022,2.4033,2.406,2.4061,2.4065,2.4064,2.409,2.4089,2.4089,2.407,2.4068,2.4066,0,0,0,0,0,0,2.3894,2.3924,2.3934,2.3942,2.3958,2.3983,2.3985,2.3997,2.401,2.4011,2.4032,2.4036,2.4045,2.4056,2.4056,2.4068,2.4076,2.4077,2.4061,2.4059,2.4057,2.4054,2.4072,0,0,0,0,0,2.3889,2.39,2.3926,2.3931,2.3939,2.3961,2.3968,2.3981,2.3997,2.4003,2.4019,2.4034,2.4046,2.4053,2.4065,2.4072,2.4077,2.4073,2.4072,2.407,2.407,2.4076,2.4074,2.4087,2.4087,2.4087,0,0,2.3879,2.3897,2.3903,2.3926,2.394,2.3951,2.3966,2.3976,2.3984,2.4004,2.4016,2.4028,2.4046,2.4055,2.4059,2.4064,2.4068,2.407,2.4068,2.4069,2.4075,2.4074,2.4073,2.4087,2.4087,2.4087,0,0,2.3866,2.3881,2.3888,2.3902,2.3923,2.3938,2.3939,2.3963,2.3973,2.3985,2.4001,2.4011,2.4031,2.4043,2.4052,2.4047,2.4058,2.4051,2.4042,2.4047,2.4046,2.4045,2.4044,2.4043,2.4051,2.4051,2.4051,0,2.385,2.3868,2.3889,2.3899,2.391,2.3931,2.3938,2.395,2.3973,2.398,2.3985,2.4012,2.4025,2.4038,2.4038,2.4044,2.4047,2.4048,2.4045,2.4044,2.4043,2.4043,2.4042,2.405,2.405,2.405,2.405,0,2.3848,2.386,2.3863,2.3888,2.3898,2.3906,2.3929,2.3937,2.3949,2.3964,2.3977,2.3994,2.4011,2.4015,2.4026,2.403,2.4032,2.4041,2.4049,2.4041,2.404,2.404,2.4048,2.4049,2.4049,2.4049,0,0,2.3817,2.3855,2.3856,2.3868,2.3894,2.3904,2.3914,2.3932,2.3939,2.3955,2.3964,2.3982,2.3991,2.4001,2.4014,2.4019,2.4015,2.4027,2.4027,2.4024,2.4021,2.4015,2.4014,2.4023,2.4023,2.4023,2.402,0,2.3808,2.3828,2.3849,2.3861,2.3873,2.3895,2.3904,2.3921,2.3935,2.3947,2.3963,2.3976,2.3986,2.3992,2.3998,2.4014,2.4015,2.4015,2.4031,2.4031,2.4026,2.4014,2.4006,2.4003,2.402,2.402,2.402,0,2.38,2.3817,2.3832,2.3859,2.3865,2.3872,2.3892,2.3903,2.3923,2.3934,2.3947,2.3961,2.3973,2.3981,2.3998,2.3997,2.4005,2.4015,2.4015,2.4017,2.4025,2.4015,2.4002,2.4001,2.402,2.402,2.402,0,2.3777,2.3803,2.3816,2.3826,2.3857,2.3863,2.3876,2.3897,2.3907,2.3924,2.3931,2.3948,2.3958,2.3971,2.399,2.3994,2.4005,2.4014,2.4014,2.4013,2.4014,2.4014,2.4002,2.402,2.402,2.402,2.402,0,2.3764,2.3772,2.3806,2.3814,2.3824,2.3848,2.3857,2.3872,2.3891,2.3901,2.3921,2.3931,2.3956,2.3968,2.3983,2.3996,2.3999,2.4008,2.4012,2.4006,2.4005,2.4011,2.4012,2.402,2.402,2.402,2.402,0,2.3739,2.3762,2.3777,2.3808,2.3815,2.3821,2.3847,2.3855,2.3872,2.3886,2.389,2.3916,2.3932,2.3953,2.3975,2.3986,2.3996,2.4002,2.399,2.3992,2.3991,2.3991,2.3982,2.3983,2.4,2.4,2.4,0,2.3729,2.3736,2.3768,2.3778,2.3791,2.3806,2.3818,2.3842,2.3853,2.3878,2.3883,2.3902,2.3917,2.3942,2.3963,2.398,2.3987,2.3983,2.3989,2.3984,2.3987,2.3987,2.3988,2.3981,2.398,2.398,2.398,0,2.371,2.3722,2.3738,2.3759,2.3773,2.3791,2.3809,2.3815,2.3843,2.3855,2.3873,2.3885,2.391,2.3928,2.3949,2.3962,2.3976,2.3978,2.3979,2.3973,2.3966,2.397,2.3985,2.3978,2.3978,2.3978,2.3978,2.3978,2.3692,2.37,2.3725,2.3743,2.376,2.3777,2.3787,2.3807,2.3822,2.3845,2.3858,2.3876,2.3898,2.3928,2.3941,2.3955,2.396,2.3961,2.3961,2.3961,2.396,2.3964,2.3959,2.3959,2.3959,2.3959,2.3959,0,2.3674,2.3692,2.3708,2.3735,2.3749,2.3764,2.3785,2.3796,2.3812,2.3832,2.3848,2.3869,2.3888,2.3911,2.393,2.3937,2.3944,2.3942,2.3941,2.3944,2.3954,2.3951,2.3936,2.3936,2.3936,2.3936,2.3936,2.3936,2.3666,2.3681,2.3696,2.372,2.3738,2.3757,2.3768,2.3784,2.3801,2.3824,2.384,2.3856,2.3877,2.3899,2.3917,2.3923,2.393,2.3925,2.3933,2.3941,2.3943,2.3945,2.3943,2.3926,2.3926,2.3923,2.3923,2.3923]},{"header":{"parameterUnit":"m.s-1","parameterCategory":1,"la1":30.2991,"la2":30.254,"lo1":-89.0895,"lo2":-89.0444,"dy":0.0017,"dx":0.0017,"nx":28,"ny":28,"refTime":"2024-06-29T09:00:00:Z","depth":0,"parameterNumber":3,"parameterNumberName":"V-component_of_WINDS"},"data":[0,0,0,0,0,0,0,0,0,0,0,0,0,0,0,0,0,0,0,0,0,0,0,0,0,0,0,0,0,0,0,0,0,0,0,0,0,0,0,0,0,0,0,0,0,0,0,0,0,0,0,0,0,0,0,0,0,0,-0.9231,-0.9232,0,-0.9293,-0.9294,-0.9294,-0.9323,-0.9323,-0.9322,-0.9322,-0.9385,-0.9386,-0.9388,0,0,0,0,0,0,0,0,0,0,0,0,0,-0.9138,-0.9139,-0.9231,-0.9232,-0.9233,-0.9293,-0.9294,-0.9294,-0.9323,-0.9323,-0.9322,-0.9322,-0.9384,-0.9386,-0.9388,0,0,0,0,0,0,0,0,0,0,0,0,0,-0.9187,-0.914,-0.9231,-0.9254,-0.9257,-0.9293,-0.9294,-0.9295,-0.9323,-0.9323,-0.9322,-0.9322,-0.9383,-0.9386,-0.9388,-0.9406,0,0,-0.9396,-0.9397,0,0,0,0,0,0,0,0,-0.9184,-0.919,-0.925,-0.9252,-0.9255,-0.93,-0.9284,-0.9332,-0.9323,-0.9297,-0.9322,-0.9322,-0.9356,-0.9361,-0.9373,-0.9409,-0.9411,-0.9397,-0.9398,-0.9399,-0.94,0,0,0,0,0,0,0,-0.918,-0.9188,-0.9255,-0.9251,-0.9254,-0.9261,-0.9268,-0.9293,-0.9327,-0.93,-0.9302,-0.9309,-0.9358,-0.937,-0.9375,-0.9412,-0.9396,-0.9399,-0.94,-0.9401,-0.9468,-0.9468,0,0,0,0,0,0,-0.9173,-0.9185,-0.9253,-0.9257,-0.9219,-0.9263,-0.9271,-0.9286,-0.9326,-0.9333,-0.9309,-0.931,-0.9366,-0.9372,-0.9377,-0.9402,-0.9399,-0.9402,-0.9403,-0.9467,-0.9468,-0.9468,0,0,0,0,0,0,-0.9171,-0.9179,-0.9251,-0.9222,-0.9231,-0.9265,-0.9281,-0.9287,-0.9299,-0.9333,-0.934,-0.9315,-0.9366,-0.9373,-0.9399,-0.9404,-0.9403,-0.9405,-0.9467,-0.9468,-0.9468,-0.945,0,0,0,0,0,0,-0.9168,-0.9178,-0.9185,-0.9222,-0.9233,-0.9272,-0.9282,-0.9288,-0.9304,-0.9306,-0.9341,-0.9347,-0.9367,-0.9395,-0.9402,-0.9408,-0.9407,-0.9467,-0.9467,-0.9468,-0.945,-0.9449,-0.9449,0,0,0,0,0,-0.9165,-0.9177,-0.9185,-0.9193,-0.9242,-0.9272,-0.9278,-0.9301,-0.9304,-0.9312,-0.9334,-0.9346,-0.9402,-0.9397,-0.9405,-0.9412,-0.9467,-0.9467,-0.9468,-0.945,-0.9449,-0.9449,0,0,0,0,0,0,-0.9139,-0.9182,-0.9192,-0.9216,-0.924,-0.9277,-0.9287,-0.93,-0.9323,-0.9324,-0.9351,-0.9359,-0.9383,-0.94,-0.9393,-0.9432,-0.9436,-0.9438,-0.942,-0.9419,-0.9419,-0.9414,-0.9409,0,0,0,0,0,-0.9136,-0.9157,-0.9194,-0.9211,-0.9223,-0.9253,-0.9267,-0.9282,-0.9309,-0.9319,-0.9343,-0.9368,-0.9391,-0.9406,-0.943,-0.9453,-0.9461,-0.9461,-0.946,-0.946,-0.9461,-0.9477,-0.9477,-0.947,-0.947,-0.947,0,0,-0.9131,-0.9157,-0.9168,-0.9207,-0.9228,-0.9249,-0.9261,-0.9283,-0.9299,-0.9322,-0.9348,-0.9367,-0.9396,-0.9421,-0.9433,-0.9436,-0.9466,-0.946,-0.946,-0.9462,-0.9477,-0.9478,-0.9478,-0.947,-0.947,-0.947,0,0,-0.9131,-0.9153,-0.9171,-0.9192,-0.9223,-0.9243,-0.9247,-0.9283,-0.9296,-0.9323,-0.9341,-0.9361,-0.94,-0.9422,-0.9437,-0.9448,-0.946,-0.9455,-0.9452,-0.9466,-0.9467,-0.9467,-0.9472,-0.9474,-0.9456,-0.9456,-0.9456,0,-0.912,-0.9153,-0.9178,-0.92,-0.9217,-0.9239,-0.9258,-0.9277,-0.9314,-0.9326,-0.9328,-0.938,-0.9401,-0.9432,-0.9435,-0.9447,-0.9453,-0.9451,-0.9465,-0.9466,-0.9467,-0.9472,-0.9473,-0.9455,-0.9455,-0.9455,-0.9455,0,-0.9139,-0.9162,-0.9172,-0.9209,-0.9227,-0.9247,-0.9275,-0.9291,-0.9305,-0.9325,-0.9353,-0.9379,-0.941,-0.9418,-0.9432,-0.9451,-0.9452,-0.9459,-0.9464,-0.9466,-0.9472,-0.9474,-0.9454,-0.9454,-0.9454,-0.9455,0,0,-0.9124,-0.9176,-0.9179,-0.9197,-0.9234,-0.9252,-0.9274,-0.9304,-0.9317,-0.9343,-0.9362,-0.9396,-0.9403,-0.9421,-0.9438,-0.945,-0.9459,-0.9456,-0.9457,-0.9457,-0.9484,-0.9479,-0.9481,-0.9467,-0.9468,-0.9468,-0.9482,0,-0.9131,-0.9171,-0.9194,-0.9224,-0.9247,-0.9269,-0.9288,-0.9313,-0.9333,-0.9354,-0.9376,-0.94,-0.9407,-0.9418,-0.9432,-0.9455,-0.9465,-0.9454,-0.9486,-0.9487,-0.9479,-0.9483,-0.9478,-0.9489,-0.9484,-0.9484,-0.9484,0,-0.9144,-0.917,-0.9202,-0.9239,-0.9249,-0.9266,-0.9296,-0.9317,-0.9346,-0.9359,-0.938,-0.9397,-0.9422,-0.9424,-0.9458,-0.9451,-0.9465,-0.9479,-0.948,-0.9484,-0.9486,-0.9489,-0.9493,-0.9495,-0.9488,-0.9487,-0.9487,0,-0.9131,-0.9175,-0.92,-0.9215,-0.9257,-0.9269,-0.9287,-0.9317,-0.9334,-0.936,-0.9372,-0.9401,-0.9416,-0.9439,-0.9463,-0.9462,-0.9496,-0.95,-0.9508,-0.9508,-0.9514,-0.9514,-0.9522,-0.9522,-0.9522,-0.9522,-0.9522,0,-0.9137,-0.9156,-0.9196,-0.9211,-0.9234,-0.9261,-0.9283,-0.9303,-0.933,-0.935,-0.9371,-0.939,-0.9421,-0.9444,-0.9463,-0.949,-0.9496,-0.9508,-0.9513,-0.9507,-0.9506,-0.9517,-0.9517,-0.9523,-0.9522,-0.9522,-0.9522,0,-0.9127,-0.9154,-0.9184,-0.9222,-0.9233,-0.9248,-0.9281,-0.9298,-0.9319,-0.9345,-0.9352,-0.9385,-0.9413,-0.944,-0.9477,-0.949,-0.9517,-0.9523,-0.9508,-0.951,-0.9518,-0.9517,-0.9535,-0.9539,-0.9535,-0.9535,-0.9535,0,-0.9129,-0.9144,-0.9185,-0.9201,-0.9219,-0.9244,-0.9262,-0.929,-0.9308,-0.9344,-0.9356,-0.9386,-0.9411,-0.9456,-0.9483,-0.9512,-0.952,-0.9524,-0.9524,-0.9518,-0.9521,-0.952,-0.9523,-0.9523,-0.9523,-0.9523,-0.9523,0,-0.913,-0.9143,-0.9168,-0.9199,-0.922,-0.9245,-0.9271,-0.9283,-0.9316,-0.9335,-0.9365,-0.9384,-0.9424,-0.9453,-0.9486,-0.9505,-0.952,-0.9523,-0.9527,-0.952,-0.9511,-0.9518,-0.9507,-0.9522,-0.9522,-0.9522,-0.9522,-0.9523,-0.9127,-0.9142,-0.9174,-0.9202,-0.9225,-0.9249,-0.9267,-0.9291,-0.9316,-0.9351,-0.9366,-0.9396,-0.9427,-0.9472,-0.9491,-0.9516,-0.9519,-0.9524,-0.9525,-0.9526,-0.9526,-0.9507,-0.9522,-0.9522,-0.9522,-0.9522,-0.9522,0,-0.913,-0.9152,-0.9177,-0.9214,-0.9236,-0.9249,-0.9278,-0.9296,-0.9323,-0.935,-0.9376,-0.941,-0.944,-0.947,-0.9502,-0.9515,-0.9523,-0.9523,-0.9522,-0.9527,-0.952,-0.9515,-0.9516,-0.9516,-0.9516,-0.9516,-0.9516,-0.9516,-0.9134,-0.9162,-0.9179,-0.9219,-0.924,-0.9271,-0.9287,-0.931,-0.9332,-0.937,-0.9395,-0.9415,-0.9444,-0.9478,-0.9506,-0.9514,-0.9525,-0.9523,-0.9534,-0.9527,-0.9527,-0.9527,-0.9522,-0.9525,-0.9525,-0.9538,-0.9538,-0.9539]}]]